When you browse on this site, cookies collect data to enhance your experience and personalize the content and advertising you see.
Visit our Privacy Policy to learn more. By continuing to use the site, you agree to this use of cookies and data.

Previsão horária em Chernyy Dor

Hoje, 13 Julho, Segunda-feira

Tempo Temperatura Precipitação Vento Pressão Humidade
00:00 +11°C° 0 mm 1 m/s 741 mmHg 94%
01:00 +11°C° 0 mm 1 m/s 741 mmHg 95%
02:00 +11°C° 0 mm 1 m/s 741 mmHg 97%
03:00 +11°C° 0 mm 1 m/s 741 mmHg 97%
04:00 +12°C° 0 mm 1 m/s 741 mmHg 96%
05:00 +12°C° 0 mm 1 m/s 741 mmHg 96%
06:00 +12°C° 0.3 mm 1 m/s 740 mmHg 96%
07:00 +13°C° 0.3 mm 1 m/s 740 mmHg 95%
08:00 +13°C° 0.3 mm 1 m/s 740 mmHg 95%
09:00 +14°C° 0.2 mm 1 m/s 740 mmHg 94%
10:00 +14°C° 0.2 mm 1 m/s 740 mmHg 93%
11:00 +14°C° 0.2 mm 1 m/s 740 mmHg 92%
12:00 +14°C° 0.8 mm 1 m/s 740 mmHg 93%
13:00 +14°C° 0.8 mm 1 m/s 739 mmHg 94%
14:00 +14°C° 0.8 mm 1 m/s 739 mmHg 95%
15:00 +14°C° 0.3 mm 1 m/s 739 mmHg 93%
16:00 +15°C° 0.3 mm 1 m/s 739 mmHg 91%
17:00 +15°C° 0.3 mm 1 m/s 739 mmHg 89%
18:00 +15°C° 0 mm 1 m/s 738 mmHg 91%
19:00 +14°C° 0 mm 1 m/s 738 mmHg 93%
20:00 +13°C° 0 mm 0 m/s 738 mmHg 95%
21:00 +13°C° 0 mm 1 m/s 738 mmHg 95%
22:00 +13°C° 0 mm 1 m/s 738 mmHg 96%
23:00 +12°C° 0 mm 1 m/s 738 mmHg 96%

Amanhã, 14 Julho, Terça-feira

Tempo Temperatura Precipitação Vento Pressão Humidade
00:00 +12°C° 0 mm 1 m/s 738 mmHg 96%
01:00 +11°C° 0 mm 1 m/s 738 mmHg 96%
02:00 +10°C° 0 mm 2 m/s 738 mmHg 96%
03:00 +10°C° 0 mm 2 m/s 738 mmHg 96%
04:00 +10°C° 0 mm 2 m/s 738 mmHg 96%
05:00 +12°C° 0 mm 2 m/s 738 mmHg 95%
06:00 +13°C° 0 mm 2 m/s 738 mmHg 88%
07:00 +14°C° 0 mm 3 m/s 738 mmHg 81%
08:00 +17°C° 0 mm 3 m/s 739 mmHg 73%
09:00 +18°C° 0 mm 3 m/s 738 mmHg 65%
10:00 +19°C° 0 mm 3 m/s 738 mmHg 57%
11:00 +20°C° 0 mm 4 m/s 738 mmHg 49%
12:00 +21°C° 0 mm 4 m/s 738 mmHg 48%
13:00 +21°C° 0 mm 4 m/s 738 mmHg 47%
14:00 +21°C° 0 mm 4 m/s 738 mmHg 46%
15:00 +21°C° 0 mm 4 m/s 738 mmHg 48%
16:00 +21°C° 0 mm 4 m/s 737 mmHg 50%
17:00 +20°C° 0 mm 4 m/s 737 mmHg 52%
18:00 +19°C° 0 mm 3 m/s 737 mmHg 58%
19:00 +18°C° 0 mm 3 m/s 736 mmHg 63%
20:00 +16°C° 0 mm 3 m/s 736 mmHg 69%
21:00 +15°C° 0 mm 4 m/s 736 mmHg 67%
22:00 +14°C° 0 mm 4 m/s 736 mmHg 65%
23:00 +14°C° 0 mm 5 m/s 735 mmHg 63%

Depois de amanhã, 15 Julho, Quarta-feira

Tempo Temperatura Precipitação Vento Pressão Humidade
00:00 +13°C° 0 mm 4 m/s 735 mmHg 63%
01:00 +13°C° 0 mm 3 m/s 736 mmHg 63%
02:00 +12°C° 0 mm 3 m/s 736 mmHg 63%
03:00 +12°C° 0.1 mm 3 m/s 736 mmHg 67%
04:00 +11°C° 0.1 mm 3 m/s 735 mmHg 71%
05:00 +11°C° 0.1 mm 3 m/s 735 mmHg 75%
06:00 +12°C° 0.2 mm 4 m/s 735 mmHg 75%
07:00 +12°C° 0.2 mm 4 m/s 735 mmHg 75%
08:00 +12°C° 0.2 mm 5 m/s 735 mmHg 75%
09:00 +13°C° 0.1 mm 4 m/s 735 mmHg 73%
10:00 +13°C° 0.1 mm 4 m/s 735 mmHg 72%
11:00 +14°C° 0.1 mm 4 m/s 735 mmHg 70%
12:00 +13°C° 0.3 mm 3 m/s 736 mmHg 76%
13:00 +12°C° 0.3 mm 3 m/s 736 mmHg 82%
14:00 +13°C° 0.3 mm 2 m/s 736 mmHg 88%
15:00 +12°C° 0.1 mm 3 m/s 736 mmHg 88%
16:00 +12°C° 0.1 mm 3 m/s 736 mmHg 89%
17:00 +12°C° 0.1 mm 3 m/s 736 mmHg 89%
18:00 +12°C° 0 mm 3 m/s 736 mmHg 87%
19:00 +12°C° 0 mm 3 m/s 736 mmHg 85%
20:00 +12°C° 0 mm 3 m/s 737 mmHg 82%
21:00 +12°C° 0 mm 3 m/s 736 mmHg 80%
22:00 +13°C° 0 mm 3 m/s 736 mmHg 79%
23:00 +13°C° 0 mm 4 m/s 736 mmHg 77%

16 Julho, Quinta-feira

Tempo Temperatura Precipitação Vento Pressão Humidade
00:00 +12°C° 0 mm 3 m/s 736 mmHg 81%
01:00 +11°C° 0 mm 3 m/s 736 mmHg 85%
02:00 +11°C° 0 mm 3 m/s 736 mmHg 90%
03:00 +11°C° 0 mm 3 m/s 736 mmHg 88%
04:00 +11°C° 0 mm 3 m/s 736 mmHg 87%
05:00 +12°C° 0 mm 3 m/s 737 mmHg 85%
06:00 +13°C° 0 mm 3 m/s 737 mmHg 79%
07:00 +15°C° 0 mm 4 m/s 737 mmHg 72%
08:00 +18°C° 0 mm 4 m/s 737 mmHg 66%
09:00 +19°C° 0 mm 4 m/s 737 mmHg 61%
10:00 +20°C° 0 mm 4 m/s 737 mmHg 56%
11:00 +21°C° 0 mm 4 m/s 737 mmHg 51%
12:00 +22°C° 0 mm 4 m/s 737 mmHg 52%
13:00 +22°C° 0 mm 4 m/s 737 mmHg 52%
14:00 +22°C° 0 mm 4 m/s 737 mmHg 52%
15:00 +21°C° 0.2 mm 4 m/s 737 mmHg 59%
16:00 +20°C° 0.2 mm 3 m/s 737 mmHg 65%
17:00 +20°C° 0.2 mm 3 m/s 737 mmHg 71%
18:00 +18°C° 0.1 mm 2 m/s 737 mmHg 77%
19:00 +17°C° 0.1 mm 2 m/s 738 mmHg 84%
20:00 +15°C° 0.1 mm 1 m/s 738 mmHg 90%
21:00 +14°C° 0 mm 1 m/s 738 mmHg 92%
22:00 +13°C° 0 mm 1 m/s 738 mmHg 94%
23:00 +12°C° 0 mm 1 m/s 738 mmHg 96%

17 Julho, Sexta-feira

Tempo Temperatura Precipitação Vento Pressão Humidade
00:00 +12°C° 0 mm 1 m/s 738 mmHg 96%
01:00 +12°C° 0 mm 1 m/s 738 mmHg 96%
02:00 +11°C° 0 mm 1 m/s 738 mmHg 96%
03:00 +10°C° 0 mm 2 m/s 738 mmHg 95%
04:00 +12°C° 0 mm 2 m/s 738 mmHg 94%
05:00 +12°C° 0 mm 2 m/s 738 mmHg 94%
06:00 +14°C° 0 mm 2 m/s 739 mmHg 85%
07:00 +16°C° 0 mm 3 m/s 739 mmHg 77%
08:00 +17°C° 0 mm 3 m/s 739 mmHg 69%
09:00 +19°C° 0 mm 3 m/s 739 mmHg 62%
10:00 +20°C° 0 mm 3 m/s 739 mmHg 56%
11:00 +21°C° 0 mm 3 m/s 739 mmHg 49%
12:00 +21°C° 0 mm 3 m/s 739 mmHg 48%
13:00 +22°C° 0 mm 3 m/s 739 mmHg 46%
14:00 +22°C° 0 mm 3 m/s 739 mmHg 44%
15:00 +22°C° 0 mm 3 m/s 739 mmHg 45%
16:00 +22°C° 0 mm 3 m/s 739 mmHg 46%
17:00 +22°C° 0 mm 3 m/s 739 mmHg 47%
18:00 +20°C° 0 mm 2 m/s 739 mmHg 57%
19:00 +18°C° 0 mm 2 m/s 740 mmHg 66%
20:00 +16°C° 0 mm 1 m/s 740 mmHg 76%
21:00 +15°C° 0 mm 1 m/s 740 mmHg 80%
22:00 +14°C° 0 mm 1 m/s 740 mmHg 85%
23:00 +12°C° 0 mm 1 m/s 741 mmHg 90%

18 Julho, Sábado

Tempo Temperatura Precipitação Vento Pressão Humidade
00:00 +12°C° 0 mm 1 m/s 741 mmHg 92%
01:00 +12°C° 0 mm 1 m/s 741 mmHg 94%
02:00 +10°C° 0 mm 2 m/s 741 mmHg 96%
03:00 +10°C° 0 mm 2 m/s 742 mmHg 92%
04:00 +10°C° 0 mm 2 m/s 742 mmHg 88%
05:00 +10°C° 0 mm 2 m/s 742 mmHg 84%
06:00 +13°C° 0 mm 2 m/s 742 mmHg 74%
07:00 +14°C° 0 mm 3 m/s 742 mmHg 64%
08:00 +17°C° 0 mm 3 m/s 743 mmHg 54%
09:00 +18°C° 0 mm 3 m/s 743 mmHg 49%
10:00 +19°C° 0 mm 3 m/s 743 mmHg 44%
11:00 +21°C° 0 mm 4 m/s 743 mmHg 40%
12:00 +21°C° 0 mm 3 m/s 743 mmHg 39%
13:00 +22°C° 0 mm 3 m/s 743 mmHg 38%
14:00 +22°C° 0 mm 3 m/s 743 mmHg 37%
15:00 +21°C° 0 mm 3 m/s 743 mmHg 43%
16:00 +20°C° 0 mm 2 m/s 743 mmHg 49%
17:00 +19°C° 0 mm 2 m/s 743 mmHg 56%
18:00 +18°C° 0 mm 2 m/s 743 mmHg 62%
19:00 +18°C° 0 mm 1 m/s 743 mmHg 67%
20:00 +15°C° 0 mm 1 m/s 743 mmHg 73%
21:00 +15°C° 0 mm 1 m/s 743 mmHg 76%
22:00 +14°C° 0 mm 1 m/s 743 mmHg 79%
23:00 +13°C° 0 mm 1 m/s 743 mmHg 82%
Mostrar mais